Ogallala, NE

8:54 AM MST on December 16, 2017 (GMT -0700)
Searle

Weather History for KOGA - March, 2013

Change the Weather History Date:

Friday, March 15, 2013

  Actual Average Record
Temperature  
Mean Temperature 57 °F -  
Max Temperature 77 °F 50 °F 84 °F (2015)
Min Temperature 37 °F 25 °F 0 °F (1949)
Degree Days  
Heating Degree Days 8    
Growing Degree Days 7 (Base 50)    
Moisture  
Dew Point 31 °F    
Average Humidity 48    
Maximum Humidity 81    
Minimum Humidity 13    
Precipitation  
Precipitation 0.00 in - - ()
Sea Level Pressure  
Sea Level Pressure 29.87 in    
Wind  
Wind Speed 10 mph (WNW)    
Max Wind Speed 21 mph    
Max Gust Speed 33 mph    
Visibility 10 miles    
Events      
Averages and records for this station are not official NWS values.
T = Trace of Precipitation, MM = Missing Value Source: NWS Daily Summary

Daily Weather History Graph

Daily Weather History Graph

Search for Another Location

Airport or City:

Trip Planner

Search our weather history database for the weather conditions in past years. The results will help you decide how hot, cold, wet, or windy it might be!

Date:

Astronomy

Mar. 15, 2013 Rise Set
Actual Time 6:58 AM MDT 6:54 PM MDT
Civil Twilight 6:30 AM MDT 7:21 PM MDT
Nautical Twilight 5:58 AM MDT 7:53 PM MDT
Astronomical Twilight 5:26 AM MDT 8:26 PM MDT
Moon 8:47 AM MDT (3/15) 11:12 PM MDT (3/15)
Length of Visible Light 12h 50m
Length of Day
11h 55m
Waxing Crescent, 16% of the Moon is Illuminated
Mar 15
Waxing Crescent
Mar 19
First Quarter
Mar 27
Full
Apr 2
Last Quarter
Apr 10
New

Hourly Weather History & Observations

Time (MDT) Temp. Windchill Dew Point Humidity Pressure Visibility Wind Dir Wind Speed Gust Speed Precip Events Conditions
12:15 AM 42.8 °F 36.2 °F 33.8 °F 70% 30.00 in 10.0 mi WSW 12.7 mph - N/A   Clear
12:35 AM 42.8 °F 37.5 °F 33.1 °F 69% 30.00 in 10.0 mi West 9.2 mph - N/A   Clear
12:55 AM 41.5 °F 35.4 °F 33.3 °F 72% 30.00 in 10.0 mi West 10.4 mph - N/A   Clear
1:15 AM 40.3 °F 34.4 °F 32.9 °F 75% 29.99 in 10.0 mi WSW 9.2 mph - N/A   Clear
1:35 AM 41.9 °F 36.3 °F 32.9 °F 70% 29.99 in 10.0 mi WSW 9.2 mph - N/A   Clear
1:55 AM 45.1 °F 40.3 °F 32.5 °F 61% 29.98 in 10.0 mi West 9.2 mph - N/A   Clear
2:15 AM 42.8 °F 38.0 °F 33.8 °F 70% 29.97 in 10.0 mi WSW 8.1 mph - N/A   Clear
2:35 AM 42.1 °F 37.1 °F 33.3 °F 71% 29.97 in 10.0 mi WSW 8.1 mph - N/A   Clear
2:55 AM 41.5 °F 36.4 °F 32.9 °F 71% 29.96 in 10.0 mi WSW 8.1 mph - N/A   Clear
3:15 AM 40.5 °F 35.8 °F 32.5 °F 73% 29.95 in 10.0 mi WSW 6.9 mph - N/A   Clear
3:35 AM 37.9 °F 34.4 °F 32.0 °F 79% 29.94 in 10.0 mi West 4.6 mph - N/A   Clear
3:55 AM 38.5 °F - 32.2 °F 78% 29.94 in 10.0 mi Calm Calm - N/A   Clear
4:15 AM 38.1 °F - 32.0 °F 79% 29.93 in 10.0 mi Calm Calm - N/A   Clear
4:35 AM 39.0 °F 34.8 °F 32.0 °F 76% 29.92 in 10.0 mi West 5.8 mph - N/A   Clear
4:55 AM 39.2 °F - 32.0 °F 75% 29.92 in 10.0 mi Calm Calm - N/A   Clear
5:15 AM 39.7 °F 37.6 °F 32.0 °F 74% 29.91 in 10.0 mi West 3.5 mph - N/A   Clear
5:35 AM 39.6 °F 33.0 °F 32.0 °F 74% 29.91 in 10.0 mi WSW 10.4 mph - N/A   Clear
5:55 AM 39.2 °F 31.6 °F 32.0 °F 75% 29.91 in 10.0 mi West 12.7 mph - N/A   Clear
6:15 AM 40.3 °F 33.9 °F 32.0 °F 72% 29.90 in 10.0 mi West 10.4 mph - N/A   Clear
6:35 AM 39.7 °F 34.9 °F 32.0 °F 74% 29.91 in 10.0 mi West 6.9 mph - N/A   Clear
6:55 AM 37.4 °F 32.1 °F 32.0 °F 81% 29.90 in 10.0 mi WSW 6.9 mph - N/A   Clear
7:15 AM 38.1 °F 33.7 °F 32.0 °F 79% 29.90 in 10.0 mi WSW 5.8 mph - N/A   Clear
7:35 AM 39.4 °F 36.1 °F 32.0 °F 75% 29.89 in 10.0 mi WSW 4.6 mph - N/A   Clear
7:55 AM 40.3 °F 33.4 °F 32.9 °F 75% 29.89 in 10.0 mi WSW 11.5 mph - N/A   Clear
8:15 AM 41.7 °F 37.3 °F 33.8 °F 73% 29.89 in 10.0 mi WSW 6.9 mph - N/A   Clear
8:35 AM 43.0 °F 37.7 °F 34.5 °F 72% 29.89 in 10.0 mi West 9.2 mph - N/A   Clear
9:55 AM 51.8 °F - 38.5 °F 60% 29.88 in 10.0 mi WSW 10.4 mph - N/A   Clear
10:15 AM 54.9 °F - 39.0 °F 55% 29.87 in 10.0 mi WSW 8.1 mph - N/A   Clear
10:35 AM 60.3 °F - 39.0 °F 45% 29.87 in 10.0 mi West 6.9 mph - N/A   Clear
10:55 AM 61.0 °F - 38.1 °F 43% 29.86 in 10.0 mi WSW 6.9 mph - N/A   Clear
11:15 AM 61.9 °F - 37.8 °F 41% 29.86 in 10.0 mi WSW 5.8 mph - N/A   Clear
11:35 AM 62.1 °F - 39.0 °F 43% 29.85 in 10.0 mi WSW 9.2 mph - N/A   Clear
11:55 AM 67.8 °F - 36.3 °F 31% 29.84 in 10.0 mi West 10.4 mph - N/A   Clear
12:15 PM 70.2 °F - 35.6 °F 28% 29.83 in 10.0 mi WSW 10.4 mph 16.1 mph N/A   Clear
12:35 PM 71.2 °F - 35.2 °F 27% 29.82 in 10.0 mi WSW 9.2 mph - N/A   Clear
12:55 PM 72.9 °F - 30.0 °F 21% 29.81 in 10.0 mi NW 15.0 mph 18.4 mph N/A   Clear
1:15 PM 74.7 °F - 27.9 °F 18% 29.80 in 10.0 mi NW 13.8 mph 23.0 mph N/A   Clear
1:35 PM 75.4 °F - 27.5 °F 17% 29.79 in 10.0 mi NW 20.7 mph 29.9 mph N/A   Clear
1:55 PM 76.1 °F - 24.1 °F 14% 29.79 in 10.0 mi NW 20.7 mph 28.8 mph N/A   Clear
2:15 PM 75.9 °F - 23.5 °F 14% 29.78 in 10.0 mi NW 13.8 mph 26.5 mph N/A   Clear
2:35 PM 76.3 °F - 22.6 °F 14% 29.77 in 10.0 mi NW 18.4 mph 27.6 mph N/A   Clear
2:55 PM 76.5 °F - 22.3 °F 13% 29.77 in 10.0 mi NNW 19.6 mph 29.9 mph N/A   Clear
3:15 PM 76.5 °F - 22.5 °F 13% 29.77 in 10.0 mi NW 15.0 mph 28.8 mph N/A   Clear
3:35 PM 77.0 °F - 21.9 °F 13% 29.77 in 10.0 mi NNW 20.7 mph 28.8 mph N/A   Clear
3:55 PM 76.3 °F - 22.3 °F 13% 29.77 in 10.0 mi North 18.4 mph 33.4 mph N/A   Clear
4:15 PM 76.3 °F - 21.6 °F 13% 29.77 in 10.0 mi NNW 20.7 mph - N/A   Clear
4:35 PM 75.6 °F - 21.2 °F 13% 29.78 in 10.0 mi NNW 19.6 mph 26.5 mph N/A   Clear
4:55 PM 75.2 °F - 21.0 °F 13% 29.77 in 10.0 mi NNW 15.0 mph - N/A   Clear
5:15 PM 73.4 °F - 22.6 °F 15% 29.77 in 10.0 mi North 16.1 mph - N/A   Clear
5:35 PM 71.2 °F - 25.5 °F 18% 29.77 in 10.0 mi North 12.7 mph - N/A   Clear
5:55 PM 67.1 °F - 29.3 °F 24% 29.77 in 10.0 mi NNE 8.1 mph - N/A   Clear
6:15 PM 63.5 °F - 31.3 °F 30% 29.78 in 10.0 mi NNE 8.1 mph - N/A   Clear
6:35 PM 62.1 °F - 31.1 °F 31% 29.79 in 10.0 mi NNE 9.2 mph - N/A   Clear
6:55 PM 59.5 °F - 32.0 °F 35% 29.80 in 10.0 mi NNE 12.7 mph - N/A   Clear
7:15 PM 59.7 °F - 32.0 °F 35% 29.81 in 10.0 mi NE 12.7 mph - N/A   Clear
7:35 PM 58.8 °F - 32.7 °F 37% 29.82 in 10.0 mi NE 12.7 mph - N/A   Clear
7:55 PM 58.3 °F - 33.3 °F 39% 29.83 in 10.0 mi NE 15.0 mph - N/A   Clear
8:15 PM 57.2 °F - 32.0 °F 38% 29.83 in 10.0 mi NE 15.0 mph - N/A   Clear
8:35 PM 56.3 °F - 31.5 °F 39% 29.84 in 10.0 mi NE 10.4 mph - N/A   Clear
8:55 PM 54.5 °F - 31.5 °F 42% 29.84 in 10.0 mi ENE 10.4 mph - N/A   Clear
9:15 PM 53.8 °F - 32.0 °F 44% 29.85 in 10.0 mi East 9.2 mph - N/A   Clear
9:35 PM 53.2 °F - 31.8 °F 44% 29.87 in 10.0 mi ENE 9.2 mph - N/A   Clear
9:55 PM 52.2 °F - 32.0 °F 46% 29.88 in 10.0 mi ENE 8.1 mph - N/A   Scattered Clouds
10:15 PM 50.0 °F - 32.7 °F 52% 29.89 in 10.0 mi ENE 9.2 mph - N/A   Clear
10:35 PM 51.4 °F - 32.0 °F 47% 29.90 in 10.0 mi ENE 10.4 mph - N/A   Scattered Clouds
10:55 PM 51.8 °F - 30.6 °F 44% 29.90 in 10.0 mi ENE 12.7 mph - N/A   Mostly Cloudy
11:15 PM 51.3 °F - 30.6 °F 45% 29.90 in 10.0 mi ENE 11.5 mph - N/A   Scattered Clouds
11:55 PM 48.7 °F - 30.7 °F 50% 29.91 in 10.0 mi ENE 17.3 mph - N/A   Clear